#timestamp,LO_Frequency,Hit,StdDev 
1665334815.2,286047000.8,N
1665334835.0,286046998.8,N
1665334835.9,286046998.8,N
1665334855.8,286047000.6,N
1665334875.6,286047001.1,N
1665334895.4,286046999.8,N
1665334915.3,286047000.3,N
1665334935.1,286046998.5,N
1665334955.8,286046998.4,N
1665334975.7,286046998.9,N
1665334995.5,286046999.3,N
1665335015.4,286046998.3,N
1665335035.2,286046999.3,N
1665335055.0,286046998.9,N
1665335055.9,286046998.9,N
1665335075.8,286047000.7,N
1665335095.6,286047002.6,N
1665335115.4,286047001.1,N
1665335135.3,286047000.7,N
1665335155.1,286046998.6,N
1665335175.9,286046998.2,N
1665335195.7,286047000.2,N
1665335215.5,286047003.8,Y
1665335235.4,286047004.1,P
1665335255.2,286047005.7,N
1665335275.0,286047004.8,N
1665335275.9,286047004.8,N
1665335295.8,286047005.2,N
1665335315.6,286047005.0,N
1665335335.5,286047005.6,N
1665335355.3,286047004.1,N
1665335375.1,286047003.1,N
1665335395.9,286047003.4,N
1665335415.7,286047003.0,N
1665335435.5,286047003.2,N
1665335455.4,286047004.0,N
1665335475.2,286047001.9,N
1665335495.1,286047001.4,N
1665335496.0,286047001.4,N
1665335515.8,286047004.4,N
1665335535.6,286047002.6,N
1665335555.5,286047002.8,N
1665335575.3,286047002.7,N
1665335595.1,286047000.9,N
1665335615.9,286047000.6,N
1665335635.7,286047000.2,N
1665335655.5,286047000.3,N
1665335675.4,286047000.1,N
1665335695.2,286047000.3,N
1665335715.1,286047002.3,N
1665335716.0,286047002.3,N
1665335735.8,286047002.1,N
1665335755.6,286047001.5,N
1665335775.5,286046999.8,N
1665335795.3,286047002.2,N
1665335815.1,286047004.0,N
1665335835.9,286047004.3,N
1665335855.7,286047004.4,N
1665335875.6,286047001.4,N
1665335895.4,286047003.9,N
1665335915.2,286047001.6,N
1665335935.1,286047002.0,N
1665335936.0,286047002.0,N
1665335955.8,286047000.3,N
1665335975.7,286046999.9,N
1665335995.5,286047000.1,N
1665336015.3,286047001.3,N
1665336035.2,286047002.2,N
1665336055.9,286047001.4,N
1665336075.7,286047002.5,N
1665336095.6,286047002.4,N
1665336115.4,286047002.5,N
1665336135.2,286047002.2,N
1665336155.1,286047000.3,N
1665336156.0,286047000.3,N
1665336175.8,286046999.7,N
1665336195.7,286047002.5,N
1665336215.5,286047001.5,N
1665336235.3,286047000.1,N
1665336255.2,286047000.8,N
1665336275.0,286047000.5,N
1665336275.9,286047000.5,N
1665336295.8,286047001.9,N
1665336315.6,286047002.1,N
1665336335.4,286047002.8,N
1665336355.3,286047002.4,N
1665336375.1,286047000.6,N
1665336395.8,286046998.2,N
1665336415.7,286047000.1,N
1665336435.5,286047002.8,N
1665336455.4,286047002.3,N
1665336475.2,286046999.9,N
1665336495.0,286046998.6,N
1665336495.9,286046998.6,N
1665336515.8,286047001.0,N
1665336535.6,286047002.5,N
1665336555.4,286047000.0,N
1665336575.3,286047000.0,N
1665336595.1,286047002.7,N
1665336615.9,286047002.4,N
1665336635.7,286047000.0,N
1665336655.5,286046998.1,N
1665336675.4,286046999.4,N
1665336695.2,286046998.9,N
1665336715.0,286046998.4,N
1665336715.9,286046998.4,N
1665336735.8,286046999.4,N
1665336755.6,286046998.3,N
1665336775.4,286046999.0,N
1665336795.3,286046998.6,N
1665336815.1,286047000.6,N
1665336835.9,286046998.6,N
1665336855.7,286046998.8,N
1665336875.5,286046998.9,N
1665336895.4,286047000.0,N
1665336915.2,286047002.6,N
1665336935.0,286047002.7,N
1665336935.9,286047002.7,N
1665336955.8,286047001.0,N
1665336975.6,286046999.7,N
1665336995.5,286047001.8,N
1665337015.3,286047004.2,N
1665337035.1,286047002.2,N
1665337055.9,286047002.3,N
1665337075.7,286047002.4,N
1665337095.5,286047001.6,N
1665337115.4,286047002.7,N
1665337135.2,286047002.0,N
1665337155.1,286047002.6,N
1665337156.0,286047002.6,N
1665337175.8,286047004.0,N
1665337195.6,286047004.3,N
1665337215.5,286047000.2,N
1665337235.3,286047000.6,N
1665337255.1,286047000.3,N
1665337275.9,286047000.8,N
1665337295.7,286047000.4,N
1665337315.6,286046999.8,N
1665337335.4,286047001.5,N
1665337355.2,286047000.5,N
1665337375.1,286046998.3,N
1665337376.0,286046998.3,N
1665337395.8,286046998.1,N
1665337415.6,286047001.2,N
1665337435.5,286047001.0,N
1665337455.3,286047000.6,N
1665337475.2,286046999.8,N
1665337495.9,286047002.4,N
1665337515.7,286047002.1,N
1665337535.6,286047000.6,N
1665337555.4,286047000.3,N
1665337575.2,286047002.6,N
1665337595.1,286047002.5,N
1665337596.0,286047002.5,N
1665337615.8,286047002.3,N
1665337635.7,286046999.9,N
1665337655.5,286047002.0,N
1665337675.3,286047001.4,N
1665337695.2,286046999.8,N
1665337715.0,286047000.0,N
1665337715.9,286047000.0,N
1665337735.7,286047002.6,N
1665337755.6,286047002.2,N
1665337775.4,286047002.5,N
1665337795.3,286047000.3,N
1665337815.1,286047000.3,N
1665337816.0,286047000.3,N
1665337835.8,286046999.8,N
1665337855.7,286047002.5,N
1665337875.5,286047000.4,N
1665337895.3,286046999.9,N
1665337915.2,286046999.7,N
1665337935.0,286047002.0,N
1665337935.9,286047002.0,N
1665337955.8,286047001.3,N
1665337975.6,286047002.1,N
1665337995.4,286046999.8,N
1665338015.3,286047000.6,N
1665338035.1,286047000.1,N
1665338055.8,286047002.1,N
1665338075.7,286046998.6,N
1665338095.5,286047000.2,N
1665338115.4,286046998.4,N
1665338135.2,286047000.7,N
1665338155.0,286046998.4,N
1665338155.9,286046998.4,N
1665338175.8,286047001.1,N
1665338195.6,286046998.2,N
1665338215.4,286046998.7,N
1665338235.3,286046999.6,N
1665338255.1,286046999.4,N
1665338275.9,286047001.2,N
1665338295.7,286046998.2,N
1665338315.5,286046998.8,N
1665338335.4,286047000.7,N
1665338355.2,286046998.5,N
1665338375.0,286047000.5,N
1665338375.9,286047000.5,N
1665338395.8,286046997.0,N
